This is the latest recevied weather packets stored in our database for station/object DJ4RO-13. If no packets are shown the sender has not sent any weather packets the latest 10 day(s).
| Time | Temp. | Humidity | Pressure | Rain* | Wind** | Luminosity | Snow |
|---|---|---|---|---|---|---|---|
| 1777485884 | 11.67° C | 39% | 1035.2 hPa | 0 mm | - | 11 W/m² | - |
| 1777485564 | 12.22° C | 38% | 1035.3 hPa | 0 mm | - | 13 W/m² | - |
| 1777485244 | 12.22° C | 37% | 1035 hPa | 0 mm | - | 15 W/m² | - |
| 1777484924 | 12.78° C | 35% | 1035.2 hPa | 0 mm | - | 17 W/m² | - |
| 1777484604 | 12.78° C | 35% | 1035.2 hPa | 0 mm | - | 20 W/m² | - |
| 1777484284 | 13.33° C | 33% | 1035.1 hPa | 0 mm | - | 22 W/m² | - |
| 1777483964 | 13.33° C | 33% | 1035.2 hPa | 0 mm | - | 26 W/m² | - |
| 1777483645 | 13.33° C | 33% | 1035.3 hPa | 0 mm | - | 26 W/m² | - |
| 1777483324 | 13.33° C | 33% | 1035.3 hPa | 0 mm | - | 29 W/m² | - |
| 1777483004 | 13.89° C | 33% | 1035.1 hPa | 0 mm | - | 31 W/m² | - |
| 1777482684 | 13.89° C | 33% | 1035.2 hPa | 0 mm | - | 40 W/m² | - |
| 1777482364 | 13.33° C | 34% | 1035.1 hPa | 0 mm | - | 30 W/m² | - |
| 1777482044 | 13.33° C | 33% | 1034.9 hPa | 0 mm | - | 34 W/m² | - |
| 1777481724 | 13.33° C | 33% | 1035 hPa | 0 mm | - | 32 W/m² | - |
| 1777481404 | 13.89° C | 33% | 1035 hPa | 0 mm | - | 34 W/m² | - |
| 1777481084 | 13.89° C | 33% | 1035.1 hPa | 0 mm | - | 36 W/m² | - |
| 1777480764 | 13.89° C | 31% | 1035 hPa | 0 mm | - | 46 W/m² | - |
| 1777480445 | 14.44° C | 31% | 1035 hPa | 0 mm | - | 53 W/m² | - |
| 1777480124 | 14.44° C | 31% | 1035.1 hPa | 0 mm | - | 71 W/m² | - |
| 1777479805 | 14.44° C | 30% | 1035 hPa | 0 mm | - | 79 W/m² | - |
| 1777479484 | 14.44° C | 31% | 1035 hPa | 0 mm | - | 92 W/m² | - |
| 1777479148 | 14.44° C | 32% | 1034.7 hPa | 0 mm | - | 102 W/m² | - |
| 1777478829 | 14.44° C | 31% | 1034.8 hPa | 0 mm | - | 135 W/m² | - |
| 1777478509 | 15° C | 32% | 1035 hPa | 0 mm | - | 123 W/m² | - |
| 1777478189 | 14.44° C | 32% | 1034.8 hPa | 0 mm | - | 112 W/m² | - |
* Rain latest hour (hover to see other rain measurements)
** Current wind speed in m/s (hover to see current wind gust speed)